TimeAKST,TemperatureF,Dew PointF,Humidity,Sea Level PressureIn,VisibilityMPH,Wind Direction,Wind SpeedMPH,Gust SpeedMPH,PrecipitationIn,Events,Conditions,WindDirDegrees,DateUTC
12:21 AM,37.4,35.6,93,30.21,10.0,Calm,Calm,-,N/A,,Overcast,0,2013-03-03 09:21:00
12:53 AM,37.0,35.1,93,30.22,10.0,East,3.5,-,N/A,,Overcast,100,2013-03-03 09:53:00
1:34 AM,37.4,35.6,93,30.24,9.0,East,5.8,-,N/A,,Overcast,80,2013-03-03 10:34:00
1:53 AM,37.0,35.1,93,30.25,10.0,East,4.6,-,N/A,,Overcast,100,2013-03-03 10:53:00
3:53 AM,36.0,34.0,93,30.27,10.0,Calm,Calm,-,N/A,,Mostly Cloudy,0,2013-03-03 12:53:00
4:04 AM,35.6,33.8,93,30.27,10.0,Calm,Calm,-,N/A,,Scattered Clouds,0,2013-03-03 13:04:00
4:25 AM,35.6,33.8,93,30.28,10.0,East,3.5,-,N/A,,Partly Cloudy,80,2013-03-03 13:25:00
4:53 AM,34.0,33.1,96,30.28,10.0,Calm,Calm,-,N/A,,Clear,0,2013-03-03 13:53:00
5:53 AM,35.1,34.0,96,30.29,10.0,Calm,Calm,-,N/A,,Clear,0,2013-03-03 14:53:00
6:53 AM,33.1,30.9,92,30.31,10.0,East,3.5,-,N/A,,Scattered Clouds,100,2013-03-03 15:53:00
7:12 AM,33.8,32.0,93,30.31,10.0,East,3.5,-,N/A,,Scattered Clouds,90,2013-03-03 16:12:00
7:53 AM,33.1,33.1,100,30.32,10.0,Calm,Calm,-,N/A,,Scattered Clouds,0,2013-03-03 16:53:00
8:53 AM,36.0,33.1,89,30.35,10.0,Calm,Calm,-,N/A,,Mostly Cloudy,0,2013-03-03 17:53:00
9:01 AM,37.4,33.8,87,30.35,10.0,Calm,Calm,-,N/A,,Scattered Clouds,0,2013-03-03 18:01:00
9:09 AM,37.4,35.6,93,30.35,10.0,Calm,Calm,-,N/A,,Mostly Cloudy,0,2013-03-03 18:09:00
9:32 AM,37.4,35.6,93,30.36,10.0,Calm,Calm,-,N/A,,Overcast,0,2013-03-03 18:32:00
9:46 AM,37.4,33.8,87,30.36,10.0,Calm,Calm,-,N/A,,Mostly Cloudy,0,2013-03-03 18:46:00
9:53 AM,37.9,35.1,89,30.36,10.0,Calm,Calm,-,N/A,,Mostly Cloudy,0,2013-03-03 18:53:00
10:08 AM,37.4,35.6,93,30.36,10.0,Calm,Calm,-,N/A,,Scattered Clouds,0,2013-03-03 19:08:00
10:53 AM,39.9,36.0,86,30.38,10.0,Calm,Calm,-,N/A,,Scattered Clouds,0,2013-03-03 19:53:00
11:53 AM,39.9,36.0,86,30.39,10.0,WNW,4.6,-,N/A,,Scattered Clouds,300,2013-03-03 20:53:00
12:53 PM,39.9,36.0,86,30.40,10.0,NW,6.9,-,N/A,,Scattered Clouds,320,2013-03-03 21:53:00
1:53 PM,41.0,33.1,73,30.40,10.0,NW,6.9,-,N/A,,Mostly Cloudy,310,2013-03-03 22:53:00
2:53 PM,42.1,33.1,70,30.41,10.0,NW,4.6,-,N/A,,Mostly Cloudy,310,2013-03-03 23:53:00
3:53 PM,42.1,34.0,73,30.41,10.0,NW,3.5,-,N/A,,Scattered Clouds,310,2013-03-04 00:53:00
4:53 PM,42.1,34.0,73,30.41,10.0,Calm,Calm,-,N/A,,Partly Cloudy,0,2013-03-04 01:53:00
5:53 PM,39.9,35.1,83,30.41,10.0,Calm,Calm,-,N/A,,Partly Cloudy,0,2013-03-04 02:53:00
6:53 PM,36.0,33.1,89,30.42,10.0,East,4.6,-,N/A,,Clear,90,2013-03-04 03:53:00
7:53 PM,36.0,33.1,89,30.43,10.0,East,5.8,-,N/A,,Partly Cloudy,100,2013-03-04 04:53:00
8:53 PM,34.0,32.0,92,30.43,10.0,ENE,3.5,-,N/A,,Clear,70,2013-03-04 05:53:00
9:53 PM,33.1,30.9,92,30.43,10.0,Calm,Calm,-,N/A,,Clear,0,2013-03-04 06:53:00
10:53 PM,32.0,30.9,96,30.44,10.0,East,3.5,-,N/A,,Clear,90,2013-03-04 07:53:00
11:53 PM,32.0,30.2,93,30.44,10.0,Calm,Calm,-,N/A,,Clear,0,2013-03-04 08:53:00